Погода в Золотурне

Швейцария     47°12′33″N   7°31′52″E
темп.,
°C
ветер,
м/с
пор.,
м/с
влажн.,
%
обл.,
%
осадки,
мм/ч
давл.,
гПа
погр.,
м
17 августа, ср
ср1723:00+17св11646 0.0 101111
02:00+17ю016461 0.0 101111
05:00+16с1177100 0.2 101313
08:00+16ю018837 0.4 101340
11:00+23вюв135432 0.3 1012662
14:00+27всв2338100 0.3 10101730
17:00+21зюз1367100 1.0 1011337
20:00+17с1192100 3.6 101225
18 августа, чт
чт1823:00+15юз3898100 1.6 1015348
02:00+15юз2699100 6.8 1014290
05:00+14ююз139996 3.3 1014122
08:00+15зюз1197100 3.5 101456
11:00+16всв119193 0.2 1014371
14:00+19св118487 1.7 1014751
17:00+18с2284100 1.8 1013521
20:00+16с1195100 2.7 101323
19 августа, пт
пт1923:00+14сз119696 0.3 101411
02:00+15ссз1198100 1.9 101437
05:00+15ссз1298100 0.9 101341
08:00+15зсз1196100 0.9 101581
11:00+19зсз1276100 0.3 1016694
14:00+23зсз23519 1.2 10151575
17:00+24з2445100 0.1 10151921
20:00+17зсз238417 0.8 101739
20 августа, сб
сб2023:00+15зюз119077 1.5 101820
02:00+14зюз229097 1.5 101925
05:00+14зсз118649 0.0 101911
08:00+15зсз11855 0.0 101935
11:00+22сз115911 0.4 1019977
14:00+21ссз127621 2.4 1019564
17:00+23сз125557 0.4 1018983
20:00+17сз118521 1.1 101911
21 августа, вс
вс2123:00+15зсз119045 0.0 102011
02:00+14з11935 0.0 101911
05:00+14зсз119457 0.0 101810
08:00+15зсз0091100 0.0 101928
11:00+21ссв0160100 0.0 1018718
14:00+25ссв214579 0.0 10162030
17:00+20сз2261100 0.0 101668
20:00+19с1160100 0.0 101714